This demonstration page uses our WeatherBlox Daily Observations layout. Learn more.

Left ArrowRight Arrow

Hourly Observations for March 5, 2020

Temp ( °F °C ) Dew Point ( °F °C ) Humidity (%) Winds ( mph kmh ) Pressure ( in mb ) Visibility ( mi km ) Precip ( " mm )
12:56 am 00:56 Clear 50 10.2 22 -5.4 33 33 SW 12 19 29.88 1012 10 16 0.00 0.00
1:56 am 01:56 Clear 52 10.9 24 -4.4 34 34 W 20 31 29.89 1012 10 16 0.00 0.00
2:17 am 02:17 Clear 50 10 28 -2 43 43 NW 23 37 29.91 1013 10 16 0.00 0.00
2:56 am 02:56 Clear 50 10.2 34 1.3 54 54 NW 16 26 29.95 1014 10 16 0.00 0.00
3:56 am 03:56 Clear 47 8.5 35 1.6 62 62 NW 15 24 29.99 1016 10 16 0.00 0.00
4:56 am 04:56 Mostly Cloudy 46 7.6 34 1 63 63 WNW 16 26 30.04 1017 10 16 0.00 0.00
5:56 am 05:56 Partly Cloudy 44 6.8 29 -1.6 55 55 WNW 17 28 30.09 1019 10 16 0.00 0.00
6:56 am 06:56 Sunny 42 5.3 28 -2.3 58 58 WNW 9 15 30.14 1021 10 16 0.00 0.00
7:56 am 07:56 Sunny 44 6.4 27 -3 51 51 WNW 12 19 30.16 1021 10 16 0.00 0.00
8:56 am 08:56 Sunny 47 8.1 25 -3.7 43 43 NW 24 39 30.18 1022 10 16 0.00 0.00
9:56 am 09:56 Sunny 48 8.9 25 -4 40 40 WNW 23 37 30.20 1023 10 16 0.00 0.00
10:56 am 10:56 Sunny 51 10.6 22 -5.4 32 32 WNW 22 35 30.20 1023 10 16 0.00 0.00
11:56 am 11:56 Sunny 51 10.8 21 -6.1 30 30 NW 25 41 30.20 1023 10 16 0.00 0.00
12:56 pm 12:56 undefined N/A N/A N/A NW 30 48 N/A N/A 0.00 0.00
1:56 pm 13:56 undefined 52 10.9 25 -4 35 35 NW 32 52 30.23 1024 10 16 0.00 0.00
2:56 pm 14:56 Partly Cloudy 50 9.8 25 -3.9 38 38 NNW 28 44 30.24 1024 10 16 0.00 0.00
3:56 pm 15:56 Partly Cloudy 49 9.6 25 -3.7 39 39 NNW 21 33 30.27 1025 10 16 0.00 0.00
4:56 pm 16:56 Partly Cloudy 48 9.1 25 -4.1 39 39 NW 23 37 30.29 1026 10 16 0.00 0.00
5:56 pm 17:56 Partly Cloudy 46 7.9 24 -4.5 42 42 NNW 24 39 30.34 1027 10 16 0.00 0.00
7:56 pm 19:56 Clear 42 5.3 25 -4 51 51 NNW 16 26 30.40 1030 10 16 0.00 0.00
8:56 pm 20:56 Clear 40 4.2 24 -4.5 54 54 NW 15 24 30.42 1030 10 16 0.00 0.00
9:56 pm 21:56 Clear 38 3.5 22 -5.4 53 53 NW 15 24 30.44 1031 10 16 0.00 0.00
10:56 pm 22:56 Clear 37 2.8 23 -4.9 57 57 NW 14 22 30.46 1032 10 16 0.00 0.00
11:56 pm 23:56 Clear 35 1.9 24 -4.4 63 63 NNW 12 19 30.46 1032 10 16 0.00 0.00

Powered by AerisWeather